Flag for Canada Weather past 2 weeks in Laval, Quebec, Canada

Now
46 °F

Partly cloudy.


Feels Like: 41 °F
Forecast: 43 / 51 °F
Wind: 12 mph from Northeast

Location: Montreal / Mirabel

Current Time: Oct 23, 2014 at 5:49:36 AM

Latest Report: Oct 23, 2014 at 5:00 AM


Visibility: 25 mi

Pressure: 30.14 "Hg

Humidity: 57%

Dew point: 32 °F

Location of LavalLocation

Historic Weather in Laval — Graph

°F

Laval temperature yesterday

Maximum temperature yesterday: 55 °F (at 3:00 PM)
Minimum temperature yesterday: 41 °F (at 9:00 AM)
Average temperature yesterday: 47 °F

Past Weeks' High & Low Weather Summary

 TemperatureHumidityPressure
High73 °F (Oct 14, 1:00 PM)100% (Oct 8, 8:00 AM)30.32 "Hg (Oct 8, 8:00 AM)
Low30 °F (Oct 11, 7:00 AM)42% (Oct 19, 6:00 PM)29.46 "Hg (Oct 18, 5:00 AM)
Average50 °F77%29.93 "Hg
* Reported Oct 8 4:00 AM — Oct 23 4:00 AM, Laval, Weather by CustomWeather, © 2014

Note: Actual official high and low records may vary slightly from our data, if they occured in-between our weather recording intervals... More about our weather records

Advertising

Laval weather history for previous 24 hours

 ConditionsComfort  
Time TempWeatherWind HumidityBarometerVisibility
4:00 AM
Oct 23
46 °FPassing clouds.5 mph57%30.15 "Hg25 mi
3:00 AM46 °FPassing clouds.9 mph57%30.16 "Hg25 mi
2:00 AM46 °FPassing clouds.7 mph57%30.19 "Hg25 mi
1:00 AM46 °FPassing clouds.9 mph57%30.21 "Hg25 mi
12:00 AM45 °FPassing clouds.8 mph61%30.22 "Hg25 mi
11:00 PM
Oct 22
46 °FPassing clouds.10 mph57%30.24 "Hg25 mi
10:00 PM46 °FPassing clouds.7 mph62%30.25 "Hg25 mi
9:00 PM46 °FPassing clouds.7 mph57%30.26 "Hg25 mi
8:00 PM48 °FPassing clouds.7 mph58%30.26 "Hg25 mi
7:00 PM48 °FPassing clouds.3 mph58%30.26 "Hg25 mi
6:00 PM52 °FBroken clouds.8 mph50%30.26 "Hg40 mi
5:00 PM54 °FScattered clouds.17 mph51%30.26 "Hg40 mi
4:00 PM55 °FScattered clouds.13 mph51%30.25 "Hg25 mi
3:00 PM55 °FScattered clouds.13 mph51%30.25 "Hg45 mi
2:00 PM52 °FBroken clouds.9 mph54%30.27 "Hg45 mi
1:00 PM50 °FPartly sunny.9 mph58%30.30 "Hg45 mi
12:00 PM48 °FPartly sunny.12 mph58%30.31 "Hg45 mi
11:00 AM45 °FPartly sunny.7 mph71%30.31 "Hg45 mi
10:00 AM43 °FOvercast.9 mph76%30.32 "Hg45 mi
9:00 AM41 °FSprinkles. Mostly cloudy.10 mph81%30.31 "Hg15 mi
8:00 AM45 °FMostly cloudy.13 mph61%30.28 "Hg15 mi
7:00 AM45 °FMostly cloudy.8 mph61%30.26 "Hg25 mi
6:00 AM45 °FMostly cloudy.8 mph61%30.25 "Hg25 mi
5:00 AM45 °FMostly cloudy.8 mph61%30.23 "Hg25 mi
Weather by CustomWeather, © 2014

See weather overviewHow to use our weather pages